ARG1513 SASJ-SABE

Flight info

Callsign ARG1513
Flight time N/A
Altitude 35000
Route ASODO1G ASODO UT672 MULTA UW24 SNT SNT8Q
Aircraft B738/M-SDE2E3FGHIRWXY/LB1

Departure

Time N/A
Airport Gobernador Horacio Guzman International Airport (SASJ)

Arrival

Time 2026-05-07 23:26
Airport Aeroparque Jorge Newbery (SABE)
Time Latitude Longitude Altitude Speed Heading
2026-05-07 22:15 -27.32047 -63.45327 34966 ft 491 kts 159°
2026-05-07 22:15 -27.38117 -63.41799 34965 ft 491 kts 159°
2026-05-07 22:16 -27.44223 -63.38246 34966 ft 492 kts 159°
2026-05-07 22:16 -27.50262 -63.34727 34965 ft 492 kts 159°
2026-05-07 22:17 -27.56334 -63.31185 34966 ft 492 kts 159°
2026-05-07 22:17 -27.62434 -63.27622 34966 ft 491 kts 159°
2026-05-07 22:18 -27.71498 -63.22320 34966 ft 492 kts 159°
2026-05-07 22:19 -27.77589 -63.18749 34965 ft 492 kts 159°
2026-05-07 22:19 -27.83642 -63.15199 34965 ft 492 kts 159°
2026-05-07 22:20 -27.89727 -63.11625 34965 ft 493 kts 159°
2026-05-07 22:20 -27.95797 -63.08055 34966 ft 493 kts 159°
2026-05-07 22:21 -28.01895 -63.04464 34966 ft 493 kts 159°
2026-05-07 22:21 -28.07949 -63.00895 34966 ft 494 kts 159°
2026-05-07 22:22 -28.14027 -62.97305 34965 ft 494 kts 159°
2026-05-07 22:22 -28.20127 -62.93699 34966 ft 494 kts 159°
2026-05-07 22:23 -28.26203 -62.90103 34966 ft 494 kts 159°
2026-05-07 22:23 -28.32288 -62.86496 34965 ft 494 kts 159°
2026-05-07 22:24 -28.38367 -62.82890 34966 ft 494 kts 159°
2026-05-07 22:24 -28.44458 -62.79270 34966 ft 494 kts 159°
2026-05-07 22:25 -28.50498 -62.75676 34966 ft 494 kts 159°
2026-05-07 22:25 -28.56599 -62.72041 34965 ft 494 kts 159°
2026-05-07 22:26 -28.62652 -62.68429 34966 ft 494 kts 159°
2026-05-07 22:26 -28.68747 -62.64790 34965 ft 494 kts 159°
2026-05-07 22:27 -28.74812 -62.61161 34966 ft 494 kts 159°
2026-05-07 22:27 -28.80903 -62.57512 34966 ft 494 kts 159°
2026-05-07 22:28 -28.86978 -62.53862 34965 ft 493 kts 159°
2026-05-07 22:28 -28.93010 -62.50205 34966 ft 494 kts 159°
2026-05-07 22:29 -28.99059 -62.46541 34965 ft 494 kts 159°
2026-05-07 22:29 -29.05156 -62.42846 34965 ft 495 kts 159°
2026-05-07 22:30 -29.11207 -62.39173 34965 ft 497 kts 159°
2026-05-07 22:30 -29.17357 -62.35435 34952 ft 497 kts 160°
2026-05-07 22:31 -29.23445 -62.31729 34940 ft 497 kts 159°
2026-05-07 22:31 -29.29528 -62.28020 34927 ft 497 kts 159°
2026-05-07 22:32 -29.35625 -62.24299 34915 ft 498 kts 159°
2026-05-07 22:32 -29.41741 -62.20559 34902 ft 498 kts 159°
2026-05-07 22:33 -29.47866 -62.16810 34879 ft 498 kts 159°
2026-05-07 22:33 -29.53994 -62.13055 34857 ft 498 kts 159°
2026-05-07 22:34 -29.60093 -62.09311 34846 ft 498 kts 159°
2026-05-07 22:34 -29.66174 -62.05572 34845 ft 497 kts 159°
2026-05-07 22:35 -29.72292 -62.01807 34840 ft 497 kts 159°
2026-05-07 22:35 -29.78360 -61.98068 34831 ft 498 kts 159°
2026-05-07 22:36 -29.84498 -61.94306 34829 ft 496 kts 161°
2026-05-07 22:36 -29.90812 -61.91484 34831 ft 486 kts 171°
2026-05-07 22:37 -29.97227 -61.89070 34830 ft 486 kts 170°
2026-05-07 22:37 -30.03648 -61.86638 34831 ft 486 kts 171°
2026-05-07 22:38 -30.10068 -61.84257 34830 ft 485 kts 171°
2026-05-07 22:38 -30.16501 -61.81882 34831 ft 486 kts 171°
2026-05-07 22:39 -30.22933 -61.79511 34830 ft 485 kts 171°
2026-05-07 22:39 -30.29362 -61.77141 34830 ft 484 kts 171°
2026-05-07 22:40 -30.35781 -61.74777 34830 ft 484 kts 171°
2026-05-07 22:40 -30.42194 -61.72412 34831 ft 485 kts 171°
2026-05-07 22:41 -30.48627 -61.70035 34830 ft 484 kts 171°
2026-05-07 22:41 -30.55021 -61.67672 34831 ft 485 kts 171°
2026-05-07 22:42 -30.61446 -61.65297 34830 ft 485 kts 171°
2026-05-07 22:42 -30.67878 -61.62925 34830 ft 484 kts 171°
2026-05-07 22:43 -30.74248 -61.60572 34830 ft 485 kts 171°
2026-05-07 22:43 -30.80664 -61.58197 34831 ft 485 kts 171°
2026-05-07 22:44 -30.87087 -61.55816 34831 ft 484 kts 171°
2026-05-07 22:44 -30.93488 -61.53441 34831 ft 485 kts 171°
2026-05-07 22:45 -30.99891 -61.51062 34831 ft 487 kts 170°
2026-05-07 22:45 -31.06339 -61.48663 34831 ft 489 kts 170°
2026-05-07 22:46 -31.12772 -61.46264 34831 ft 488 kts 170°
2026-05-07 22:46 -31.19284 -61.43834 34831 ft 488 kts 170°
2026-05-07 22:47 -31.25653 -61.41454 34831 ft 488 kts 170°
2026-05-07 22:47 -31.32114 -61.39035 34831 ft 488 kts 170°
2026-05-07 22:48 -31.38570 -61.36597 34831 ft 488 kts 170°
2026-05-07 22:48 -31.45033 -61.34149 34831 ft 488 kts 169°
2026-05-07 22:49 -31.49974 -61.32278 34833 ft 491 kts 169°
2026-05-07 22:49 -31.54812 -61.30447 34831 ft 497 kts 169°
2026-05-07 22:50 -31.61450 -61.27927 34831 ft 504 kts 169°
2026-05-07 22:50 -31.68172 -61.25369 34830 ft 508 kts 169°
2026-05-07 22:51 -31.74863 -61.22816 34830 ft 506 kts 169°
2026-05-07 22:51 -31.81554 -61.20262 34831 ft 506 kts 169°
2026-05-07 22:52 -31.88240 -61.17708 34831 ft 506 kts 169°
2026-05-07 22:52 -31.94951 -61.15140 34830 ft 507 kts 169°
2026-05-07 22:53 -32.01662 -61.12568 34831 ft 508 kts 169°
2026-05-07 22:53 -32.08387 -61.09987 34831 ft 508 kts 170°
2026-05-07 22:54 -32.15111 -61.07399 34831 ft 509 kts 170°
2026-05-07 22:54 -32.21638 -61.03942 34826 ft 528 kts 151°
2026-05-07 22:55 -32.27404 -60.98389 34812 ft 537 kts 146°
2026-05-07 22:55 -32.33246 -60.92836 34806 ft 537 kts 148°
2026-05-07 22:56 -32.39103 -60.87394 34809 ft 536 kts 148°
2026-05-07 22:56 -32.44978 -60.81910 34807 ft 536 kts 148°
2026-05-07 22:57 -32.50850 -60.76437 34804 ft 536 kts 148°
2026-05-07 22:57 -32.56691 -60.70988 34804 ft 536 kts 148°
2026-05-07 22:58 -32.62564 -60.65501 34804 ft 536 kts 148°
2026-05-07 22:58 -32.68404 -60.60036 34804 ft 536 kts 148°
2026-05-07 22:59 -32.74212 -60.54593 34804 ft 536 kts 148°
2026-05-07 22:59 -32.80087 -60.49078 34804 ft 536 kts 148°
2026-05-07 23:00 -32.85901 -60.43610 34804 ft 536 kts 148°
2026-05-07 23:00 -32.91737 -60.38113 34803 ft 536 kts 148°
2026-05-07 23:01 -32.97566 -60.32613 34805 ft 535 kts 147°
2026-05-07 23:01 -33.03359 -60.27135 34803 ft 529 kts 147°
2026-05-07 23:02 -33.09072 -60.21724 34803 ft 520 kts 146°
2026-05-07 23:02 -33.14671 -60.16414 34804 ft 514 kts 146°
2026-05-07 23:03 -33.20295 -60.11075 34804 ft 515 kts 146°
2026-05-07 23:03 -33.25907 -60.05736 34804 ft 517 kts 146°
2026-05-07 23:04 -33.31525 -60.00381 34804 ft 516 kts 146°
2026-05-07 23:04 -33.37123 -59.95036 34697 ft 518 kts 146°
2026-05-07 23:05 -33.42749 -59.89654 34696 ft 515 kts 146°
2026-05-07 23:05 -33.48250 -59.84385 34696 ft 516 kts 146°
2026-05-07 23:06 -33.53880 -59.78982 34696 ft 517 kts 146°
2026-05-07 23:06 -33.59481 -59.73598 34607 ft 519 kts 146°
2026-05-07 23:06 -33.62317 -59.70872 33768 ft 528 kts 145°
2026-05-07 23:07 -33.65146 -59.68145 33008 ft 515 kts 145°
2026-05-07 23:07 -33.67877 -59.65503 32393 ft 503 kts 145°
2026-05-07 23:07 -33.70612 -59.62863 31746 ft 505 kts 144°
2026-05-07 23:07 -33.73372 -59.60202 31080 ft 510 kts 144°
2026-05-07 23:08 -33.76114 -59.57555 30412 ft 512 kts 144°
2026-05-07 23:08 -33.78904 -59.54856 29733 ft 512 kts 144°
2026-05-07 23:08 -33.81677 -59.52169 29053 ft 511 kts 143°
2026-05-07 23:08 -33.84436 -59.49496 28377 ft 511 kts 143°
2026-05-07 23:09 -33.87166 -59.46847 27704 ft 510 kts 143°
2026-05-07 23:09 -33.89949 -59.44146 27014 ft 512 kts 143°
2026-05-07 23:09 -33.92721 -59.41453 26264 ft 513 kts 142°
2026-05-07 23:09 -33.95506 -59.38744 25550 ft 511 kts 142°
2026-05-07 23:10 -33.98269 -59.36054 24854 ft 508 kts 142°
2026-05-07 23:10 -34.00911 -59.33481 24189 ft 505 kts 141°
2026-05-07 23:10 -34.03656 -59.30806 23495 ft 500 kts 141°
2026-05-07 23:10 -34.06327 -59.28199 22814 ft 493 kts 141°
2026-05-07 23:11 -34.08947 -59.25641 22146 ft 486 kts 141°
2026-05-07 23:11 -34.11552 -59.23095 21482 ft 480 kts 141°
2026-05-07 23:11 -34.14149 -59.20555 20819 ft 474 kts 141°
2026-05-07 23:11 -34.16676 -59.18082 20169 ft 468 kts 140°
2026-05-07 23:12 -34.19194 -59.15614 19519 ft 462 kts 140°
2026-05-07 23:12 -34.21688 -59.13169 18871 ft 456 kts 140°
2026-05-07 23:12 -34.24131 -59.10772 18238 ft 451 kts 140°
2026-05-07 23:12 -34.26556 -59.08391 17607 ft 445 kts 140°
2026-05-07 23:13 -34.28924 -59.06064 16988 ft 439 kts 140°
2026-05-07 23:13 -34.31280 -59.03747 16372 ft 434 kts 140°
2026-05-07 23:13 -34.33603 -59.01460 15761 ft 429 kts 140°
2026-05-07 23:13 -34.35913 -58.99185 15153 ft 424 kts 141°
2026-05-07 23:14 -34.38170 -58.96960 14557 ft 419 kts 141°
2026-05-07 23:14 -34.40415 -58.94746 13962 ft 414 kts 141°
2026-05-07 23:14 -34.42645 -58.92545 13375 ft 409 kts 141°
2026-05-07 23:14 -34.44762 -58.90326 12928 ft 402 kts 133°
2026-05-07 23:15 -34.46330 -58.87522 12686 ft 401 kts 115°
2026-05-07 23:15 -34.47437 -58.84411 12456 ft 401 kts 113°
2026-05-07 23:15 -34.48559 -58.81339 12193 ft 389 kts 115°
2026-05-07 23:15 -34.49681 -58.78435 11751 ft 369 kts 116°
2026-05-07 23:16 -34.50761 -58.75660 11092 ft 356 kts 116°
2026-05-07 23:16 -34.51812 -58.72973 10356 ft 352 kts 116°
2026-05-07 23:16 -34.52854 -58.70323 9929 ft 345 kts 116°
2026-05-07 23:16 -34.53900 -58.67674 9574 ft 351 kts 116°
2026-05-07 23:17 -34.54944 -58.65031 9021 ft 348 kts 116°
2026-05-07 23:17 -34.56002 -58.62353 8593 ft 342 kts 116°
2026-05-07 23:17 -34.57022 -58.59772 8361 ft 343 kts 116°
2026-05-07 23:17 -34.58069 -58.57122 8097 ft 339 kts 116°
2026-05-07 23:18 -34.59063 -58.54604 7383 ft 330 kts 116°
2026-05-07 23:18 -34.60049 -58.52106 6276 ft 333 kts 116°
2026-05-07 23:18 -34.61037 -58.49601 5768 ft 325 kts 116°
2026-05-07 23:18 -34.61978 -58.47213 5345 ft 313 kts 117°
2026-05-07 23:19 -34.62886 -58.44906 4968 ft 296 kts 117°
2026-05-07 23:19 -34.63756 -58.42697 4598 ft 282 kts 117°
2026-05-07 23:19 -34.64590 -58.40579 4238 ft 270 kts 117°
2026-05-07 23:19 -34.65382 -58.38561 3914 ft 258 kts 117°
2026-05-07 23:20 -34.66145 -58.36633 3807 ft 249 kts 116°
2026-05-07 23:20 -34.66911 -58.34693 3662 ft 252 kts 116°
2026-05-07 23:20 -34.67661 -58.32766 3392 ft 249 kts 116°
2026-05-07 23:20 -34.68369 -58.30949 3374 ft 226 kts 115°
2026-05-07 23:21 -34.69033 -58.29266 3396 ft 216 kts 115°
2026-05-07 23:21 -34.69612 -58.27552 3381 ft 219 kts 100°
2026-05-07 23:21 -34.69414 -58.25748 3359 ft 216 kts 59°
2026-05-07 23:21 -34.68407 -58.24417 3270 ft 208 kts 33°
2026-05-07 23:22 -34.67117 -58.23792 2843 ft 203 kts
2026-05-07 23:22 -34.65776 -58.24053 2466 ft 194 kts 327°
2026-05-07 23:22 -34.64918 -58.25337 2537 ft 205 kts 301°
2026-05-07 23:22 -34.64076 -58.26743 2274 ft 201 kts 307°
2026-05-07 23:23 -34.63293 -58.28084 1945 ft 188 kts 302°
2026-05-07 23:23 -34.62580 -58.29350 1733 ft 181 kts 308°
2026-05-07 23:23 -34.61878 -58.30589 1401 ft 170 kts 294°
2026-05-07 23:23 -34.61352 -58.31825 1341 ft 168 kts 298°
2026-05-07 23:24 -34.60772 -58.32968 1522 ft 156 kts 303°
2026-05-07 23:24 -34.60147 -58.34062 1494 ft 158 kts 305°
2026-05-07 23:24 -34.59541 -58.35129 1244 ft 148 kts 303°
2026-05-07 23:24 -34.58960 -58.36140 919 ft 144 kts 303°
2026-05-07 23:25 -34.58398 -58.37142 715 ft 142 kts 302°
2026-05-07 23:25 -34.57841 -58.38143 541 ft 142 kts 304°
2026-05-07 23:25 -34.57294 -58.39101 323 ft 150 kts 302°
2026-05-07 23:25 -34.56723 -58.40115 149 ft 146 kts 300°
2026-05-07 23:26 -34.56181 -58.41110 31 ft 129 kts 302°
2026-05-07 23:26 -34.55747 -58.41894 28 ft 90 kts 304°
2026-05-07 23:26 -34.55490 -58.42363 27 ft 51 kts 305°
2026-05-07 23:26 -34.55380 -58.42500 27 ft 8 kts 19°
2026-05-07 23:27 -34.55360 -58.42429 27 ft 2 kts 98°
2026-05-07 23:27 -34.55363 -58.42409 27 ft 3 kts 101°
2026-05-07 23:27 -34.55384 -58.42347 27 ft 12 kts 121°
2026-05-07 23:28 -34.55456 -58.42227 27 ft 22 kts 127°
2026-05-07 23:28 -34.55544 -58.42088 27 ft 18 kts 125°
2026-05-07 23:28 -34.55625 -58.41948 27 ft 18 kts 125°
2026-05-07 23:28 -34.55696 -58.41821 27 ft 17 kts 124°
2026-05-07 23:29 -34.55748 -58.41706 27 ft 14 kts 120°
2026-05-07 23:29 -34.55804 -58.41582 27 ft 20 kts 116°
2026-05-07 23:29 -34.55884 -58.41396 27 ft 24 kts 118°
2026-05-07 23:29 -34.55899 -58.41311 27 ft 7 kts 37°
2026-05-07 23:30 -34.55889 -58.41302 27 ft 0 kts 38°
2026-05-07 23:31 -34.55872 -58.41285 27 ft 6 kts 45°
2026-05-07 23:31 -34.55843 -58.41234 27 ft 5 kts 45°
2026-05-07 23:31 -34.55824 -58.41214 27 ft 0 kts 40°
2026-05-07 23:31 -34.55822 -58.41212 27 ft 0 kts 40°